This is the latest recevied weather packets stored in our database for station/object JO1YDG-13. If no packets are shown the sender has not sent any weather packets the latest 10 day(s).
| Time | Temp. | Humidity | Pressure | Rain* | Wind** | Luminosity | Snow |
|---|---|---|---|---|---|---|---|
| 1778061239 | 17.22° C | 73% | 990.3 hPa | 0 mm | - | - | - |
| 1778060938 | 17.22° C | 72% | 990.1 hPa | 0 mm | - | - | - |
| 1778060338 | 17.22° C | 70% | 990 hPa | 0 mm | - | - | - |
| 1778060038 | 17.78° C | 66% | 990 hPa | 0 mm | - | - | - |
| 1778059740 | 17.78° C | 66% | 990 hPa | 0 mm | - | - | - |
| 1778059440 | 17.78° C | 65% | 990 hPa | 0 mm | - | - | - |
| 1778058839 | 17.78° C | 65% | 990.5 hPa | 0 mm | - | - | - |
| 1778058539 | 18.33° C | 64% | 990.5 hPa | 0 mm | - | - | - |
| 1778058239 | 18.33° C | 64% | 990.4 hPa | 0 mm | - | - | - |
| 1778057939 | 18.33° C | 64% | 990.3 hPa | 0 mm | - | - | - |
| 1778057638 | 18.33° C | 62% | 990.3 hPa | 0 mm | - | - | - |
| 1778057338 | 18.33° C | 62% | 990.2 hPa | 0 mm | - | - | - |
| 1778056740 | 18.89° C | 59% | 990.2 hPa | 0 mm | - | - | - |
| 1778056439 | 18.89° C | 59% | 990.2 hPa | 0 mm | - | - | - |
| 1778056139 | 18.33° C | 62% | 990.2 hPa | 0 mm | - | - | - |
| 1778055839 | 18.33° C | 59% | 990.3 hPa | 0 mm | - | - | - |
| 1778055540 | 18.33° C | 59% | 990.3 hPa | 0 mm | - | - | - |
| 1778055240 | 18.89° C | 58% | 990.4 hPa | 0 mm | - | - | - |
| 1778054939 | 18.89° C | 58% | 990.4 hPa | 0 mm | - | - | - |
| 1778054639 | 18.89° C | 58% | 990.3 hPa | 0 mm | - | - | - |
| 1778054339 | 18.89° C | 59% | 990.3 hPa | 0 mm | - | - | - |
| 1778054039 | 18.89° C | 58% | 990.3 hPa | 0 mm | - | - | - |
| 1778053738 | 18.89° C | 58% | 990.4 hPa | 0 mm | - | - | - |
| 1778053138 | 18.33° C | 59% | 990.5 hPa | 0 mm | - | - | - |
| 1778052840 | 18.33° C | 58% | 990.5 hPa | 0 mm | - | - | - |
* Rain latest hour (hover to see other rain measurements)
** Current wind speed in m/s (hover to see current wind gust speed)